Location: Berduj
(43.0019°N, 22.3781°E)
Time: 23:13:09
(UTC+00:00)

MOS 1 - Pass Details

Date: 19 October 2019
Orbit: 878 x 891 km, 99.2° (Epoch: 13 November)

Event Time Altitude Azimuth Distance (km) Brightness Sun altitude
Exits shadow 17:41:18 35° 144° (SE) 1,391 5.0 -22.5°
Maximum altitude 17:43:43 69° 72° (ENE) 945 4.2 -22.9°
Drops below altitude 10° 17:49:21 10° 350° (N) 2,546 6.9 -23.9°
Sets 17:51:45 0° 349° (NNW) 3,488 7.7 -24.4°
